Location: Fournol
(45.6190°N, 1.9918°E)
Time: 07:07:44
(UTC+00:00)

Daily predictions for brighter satellites

Satellite Brightness Start Highest point End
(mag) Time Altitude Azimuth Time Altitude Azimuth Time Altitude Azimuth
Centaur D AC-29 4.2 20:12:00 10° SSW 20:17:33 26° SSE 20:36:35 10° ESE
Meteor 2-10 Rocket 4.5 20:12:54 10° N 20:17:58 35° ENE 20:22:50 10° SE
Cosmos 1980 Rocket 3.7 20:14:29 10° NW 20:19:31 33° WSW 20:24:30 10° SSW
CZ-4C R/B 3.6 20:15:34 10° NNE 20:19:39 53° E 20:23:39 10° S
Cosmos 540 Rocket 3.8 20:16:50 10° NNW 20:21:58 68° WSW 20:27:03 10° S
Cosmos 2322 Rocket 2.8 20:16:55 10° NNW 20:22:22 45° ENE 20:27:47 10° SE
EXPRESS MD2 2.9 20:19:14 10° WSW 20:22:39 63° NNW 20:25:00 10° ENE
Cosmos 1300 4.1 20:21:36 10° NNE 20:24:23 21° ENE 20:27:09 10° ESE
COSMOS 2406 4.3 20:23:18 10° SW 20:28:54 51° WNW 20:34:30 10° NNE
SL-4 R/B 3.6 20:25:38 10° WNW 20:29:06 33° N 20:32:46 10° ENE
IRS-1A Rocket 4.4 20:24:05 10° SSE 20:29:30 64° ENE 20:34:59 10° N
Meteor 1-22 Rocket 4.5 20:24:54 10° N 20:30:32 59° ENE 20:36:20 10° SSE
Resurs 01 Rocket 3.4 20:28:00 10° SSW 20:31:52 30° W 20:35:45 10° NNW
Cosmos 1441 Rocket 3.2 20:31:23 10° NNW 20:35:01 77° W 20:38:39 10° S
Cosmos 2278 3.9 20:30:44 10° NNW 20:36:28 77° WSW 20:42:09 10° SSE
Cosmos 1908 3.3 20:33:35 10° NNW 20:37:11 72° W 20:40:47 10° S
SJ 16-02 2.8 20:34:10 10° SE 20:37:14 19° E 20:40:19 10° NE
SPOT 5 2.6 20:33:41 10° SSE 20:38:00 89° WSW 20:42:27 10° NNW
SeaSat 1 2.8 20:34:57 10° SE 20:39:44 56° ENE 20:44:34 10° NNW
Cosmos 968 Rocket 4.2 20:35:21 10° SSE 20:39:53 32° E 20:44:28 10° NE
Cosmos 1417 Rocket 4.5 20:36:47 10° N 20:43:00 85° E 20:49:08 10° S
Cosmos 1707 Rocket 4.4 20:41:00 10° SSE 20:45:00 34° E 20:49:02 10° NNE
Cosmos 2219 Rocket 3.5 20:40:29 10° N 20:45:28 30° NE 20:50:25 10° ESE
Cosmos 1400 Rocket 2.7 20:42:51 10° S 20:46:43 69° E 20:50:32 10° NNE
ATLAS CENTAUR R/B 0.9 20:46:28 10° SSW 20:49:53 58° ESE 20:53:25 10° NE
SL-08 ROCKET BODY 4.4 20:44:19 10° S 20:50:25 72° E 20:56:27 10° NNE
SPOT 3 Rocket 3.9 20:46:45 11° SE 20:51:28 51° ENE 20:56:28 10° N
Cosmos 1741 Rocket 4.1 20:46:32 10° S 20:51:41 57° ESE 20:56:52 10° NNE
IRS-1C Rocket 4.3 20:50:44 10° S 20:55:59 76° WSW 21:01:16 10° NNW
Timation 1 Rocket 4.3 20:52:40 10° SSW 20:58:38 87° ESE 21:04:38 10° NNE
USA 234 3.2 20:52:18 10° NE 20:58:49 64° SE 21:05:17 10° SW
Cosmos 1356 Rocket 3.6 20:56:11 10° S 21:00:16 53° E 21:04:23 10° NNE
Landsat 4 3.8 20:58:07 15° SE 21:00:43 52° ENE 21:04:04 10° N
Okean 1-7 4.4 21:01:51 15° SE 21:04:13 23° E 21:07:35 10° NE
Cosmos 1733 Rocket 3.3 21:00:33 10° N 21:04:54 55° ENE 21:08:17 16° SSE
BlueWalker 3 3.1 21:02:27 10° S 21:05:18 21° SE 21:08:09 10° E
Cosmos 1953 4.0 21:02:40 10° NNE 21:05:26 19° ENE 21:07:31 13° ESE
Terra 1.8 21:02:24 12° SSE 21:06:46 89° WSW 21:11:32 10° NNW
Cosmos 1315 Rocket 4.2 21:06:12 16° SE 21:08:08 23° E 21:11:20 10° NE
Cosmos 2360 Rocket 2.2 21:05:49 10° NNW 21:11:32 80° ENE 21:16:01 17° SSE
ERS-1 Rocket 3.2 21:08:52 10° S 21:13:48 67° WSW 21:18:49 10° NNW
Cosmos 841 Rocket 4.2 21:13:16 10° NNW 21:18:22 51° WSW 21:23:04 12° S
SL-27 R/B 1.8 21:16:06 10° SSW 21:18:50 80° WNW 21:21:38 10° NNE
Cosmos 1455 3.6 21:16:35 10° NNE 21:19:21 21° ENE 21:20:53 16° ESE
S3M 4.5 21:14:34 10° NNW 21:20:50 61° W 21:26:59 10° S
SL-16 R/B 3.1 21:19:25 10° NW 21:24:43 42° WSW 21:29:42 11° S
BREEZE-M DEB (TANK) 3.8 21:21:24 10° WSW 21:25:18 82° NNW 21:40:18 10° ENE
USA 245 4.3 21:24:01 12° SSW 21:27:06 44° W 21:31:24 10° NNW
Cosmos 807 4.1 21:26:03 18° S 21:28:20 86° E 21:31:17 10° N
Aureole 3 3.6 21:25:42 18° S 21:28:34 66° E 21:33:29 10° NNE
Spot 2 Rocket 3.8 21:25:39 14° S 21:29:59 64° WSW 21:35:03 10° NNW
SL-14 R/B 3.7 21:26:52 10° SSW 21:30:36 59° W 21:34:22 10° N
Cosmos 2333 Rocket 2.3 21:25:19 10° NNW 21:31:06 81° WSW 21:35:13 20° SSE
Cosmos 1346 Rocket 3.0 21:29:37 10° NNW 21:33:28 65° W 21:36:01 20° S
Cosmos 2228 Rocket 3.6 21:31:04 10° SSW 21:35:35 63° W 21:40:09 10° N
Cosmos 1655 Rocket 4.4 21:33:08 10° SSW 21:39:28 67° W 21:45:52 10° N
COSMOS 2455 4.0 21:38:31 20° SE 21:40:23 23° ESE 21:44:58 10° ENE
Cosmos 1833 4.2 21:37:29 10° SSW 21:43:07 85° WNW 21:48:47 10° NNE
ATLAS 2AS CENTAUR R/B 2.7 21:36:43 10° NW 21:43:30 71° WSW 21:47:58 22° SSE
Landsat 5 3.3 21:40:18 10° NNE 21:44:22 80° ESE 21:47:12 20° S
Meteor 1-4 Rocket 1.9 21:44:35 31° S 21:45:53 88° W 21:48:54 10° N
Atlas Centaur 2 4.3 21:41:26 10° WSW 21:46:53 20° SSW 21:49:23 17° S
Cosmos 2237 Rocket 4.1 21:43:07 10° N 21:47:15 20° NE 21:51:22 10° E
Cosmos 1242 Rocket 3.0 21:47:48 28° E 21:47:48 28° E 21:50:06 10° NNE
USA 281 3.9 21:43:40 16° ESE 21:48:35 45° NE 21:54:47 10° NNW
Okean 3 3.6 21:48:17 17° SSW 21:51:26 69° W 21:55:37 10° N
Cosmos 1244 Rocket 4.5 21:47:25 18° S 21:52:12 76° E 21:58:31 10° N
Cosmos 2322 4.1 21:47:17 10° NNW 21:52:52 54° ENE 21:56:21 22° SE
Meteor 1-16 Rocket 4.4 21:47:22 10° NNW 21:53:19 84° W 21:57:16 22° S
RESURS DK-1 4.3 21:51:02 10° WNW 21:54:06 21° WSW 21:56:35 12° SSW
Ariane Rocket 4.0 21:50:55 14° SSW 21:54:57 41° W 21:59:46 10° NNW
Cosmos 839 Rocket 4.1 21:49:55 10° NW 21:56:47 82° WSW 22:00:35 25° SSE
Spot 1 4.4 21:52:29 10° N 21:57:04 75° WNW 22:01:06 15° SSW
Cosmos 2333 4.5 21:53:06 10° NNW 21:58:48 64° WSW 22:02:17 24° S
Cosmos 1300 4.4 21:56:07 10° NW 21:59:03 24° W 22:01:29 13° SW
H-2A R/B 4.1 21:58:24 17° ESE 22:00:23 24° ENE 22:03:47 10° NNE
MetOp-A 4.1 21:58:04 24° S 22:01:17 75° WSW 22:06:33 10° NNW
Cosmos 1703 Rocket 3.7 21:59:29 30° SSE 22:01:29 59° E 22:05:53 10° NNE
Cosmos 2322 Rocket 3.5 22:01:17 10° NW 22:06:12 31° WSW 22:10:02 15° SSW
SL-4 R/B 3.0 22:04:38 10° WNW 22:08:26 45° NNE 22:12:22 11° E
DNEPR-1 R/B 4.4 22:04:48 10° NW 22:11:18 68° WSW 22:14:05 30° SSE
Cosmos 2297 Rocket 3.4 22:11:53 22° ESE 22:13:05 24° ESE 22:17:29 10° NE
SJ 16-02 2.4 22:11:09 10° SW 22:15:15 42° WNW 22:19:23 10° N
SeaSat 1 4.2 22:14:32 14° SSW 22:17:28 22° WSW 22:21:17 10° NW
SL-08 R/B 4.4 22:13:36 22° S 22:17:44 87° W 22:23:52 10° N
BREEZE-M DEB (TANK) 4.1 22:21:06 10° WNW 22:23:55 52° N 22:31:17 10° E
Cosmos 158 Rocket 4.2 22:18:44 10° NNW 22:24:01 64° ENE 22:26:23 32° SE
Cosmos 2242 Rocket 4.3 22:23:28 32° SE 22:24:41 39° E 22:28:57 10° NNE
Cosmos 1408 2.9 22:27:18 37° ENE 22:27:18 37° ENE 22:29:48 10° NNE
BREEZE-M DEB (TANK) 3.1 22:25:21 10° W 22:27:27 39° SSW 22:27:27 39° SSW
ATLAS CENTAUR R/B 4.1 22:25:30 10° W 22:27:53 17° NW 22:30:19 10° N
Cosmos 1570 Rocket 4.0 22:22:33 10° NNW 22:27:55 86° WSW 22:30:19 34° SSE
MINOTAUR 4 R/B 3.9 22:26:24 10° NNE 22:28:58 49° ENE 22:28:58 49° ENE
Cosmos 2219 Rocket 2.7 22:24:11 10° NW 22:29:39 50° WSW 22:32:21 28° SSW
CZ-4C R/B 2.2 22:28:53 37° SE 22:29:42 40° ESE 22:34:40 10° NE
EXPRESS MD2 3.9 22:28:22 10° WNW 22:30:23 27° N 22:30:57 24° NE
COSMOS 2428 2.7 22:30:12 10° NNW 22:35:56 90° ENE 22:38:32 34° SSE
NOSS 8 (E) 4.4 22:34:56 39° SSW 22:36:14 81° SE 22:39:28 10° NE
CENTAUR R/B 3.9 22:37:02 17° ESE 22:37:33 17° ESE 22:41:25 10° ENE
BREEZE-M DEB (TANK) 4.2 22:23:14 10° W 22:38:32 64° N 22:42:32 10° ENE
CZ-2C R/B 3.6 22:35:09 10° N 22:39:35 79° WNW 22:41:29 34° SSW
Okean 1-7 4.4 22:38:24 16° SW 22:41:18 34° WNW 22:45:16 10° N
Cosmos 1953 3.5 22:37:54 10° NNW 22:41:21 32° W 22:42:38 25° SW
USA 234 4.1 22:35:26 10° NE 22:41:44 52° NNW 22:48:00 10° W
Meteor 2-5 Rocket 4.4 22:40:27 31° SE 22:42:40 43° E 22:48:09 10° NNE
BlueWalker 3 2.1 22:39:24 10° WSW 22:43:08 69° NNW 22:46:53 10° NE
Terra 4.5 22:44:24 10° W 22:45:03 10° W 22:45:43 10° WNW
Cosmos 405 Rocket 4.1 22:42:04 10° NNE 22:45:16 26° ENE 22:46:03 24° E
ARIANE 5 R/B 2.7 22:45:12 42° SSW 22:46:31 67° WSW 22:50:51 10° NNW
Cosmos 773 Rocket 4.3 22:45:34 10° NNW 22:50:40 58° ENE 22:52:47 33° SE
Cosmos 1455 3.7 22:50:52 10° NW 22:53:43 23° W 22:54:36 21° WSW
Cosmos 836 Rocket 4.4 22:48:34 10° NNW 22:53:48 83° WSW 22:55:41 41° SSE
Cosmos 2360 Rocket 4.3 22:51:25 10° WNW 22:54:47 16° W 22:57:47 11° SW
Cosmos 371 Rocket 3.2 22:53:42 44° S 22:55:08 69° ESE 22:59:56 10° NNE
Cosmos 2084 Rocket 4.1 22:57:00 36° ESE 22:57:00 36° ESE 23:00:32 10° NE
PSLV R/B 4.1 22:56:08 10° N 23:00:05 62° WNW 23:01:19 40° SW
Cosmos 1782 Rocket 4.0 22:57:06 10° NNW 23:01:18 51° W 23:02:30 38° SW
GP-B 4.0 22:57:35 10° NNW 23:01:43 41° W 23:03:32 27° SW
Cosmos 1745 Rocket 4.3 22:59:46 26° SSW 23:03:29 66° WNW 23:09:50 10° N
Cosmos 2208 Rocket 4.3 22:58:48 10° NNW 23:03:52 56° WSW 23:05:33 38° SSW
CZ-2C R/B 4.0 23:01:50 33° SSW 23:04:10 78° W 23:25:14 10° N
Cosmos 1892 4.1 23:05:53 23° E 23:05:53 23° E 23:08:31 10° NE
Cosmos 1777 Rocket 4.2 23:05:54 41° SSE 23:07:20 55° ESE 23:12:30 10° NNE
PSLV R/B 4.4 23:03:41 10° NNE 23:07:30 33° E 23:07:52 32° ESE
Cosmos 1503 Rocket 4.0 23:07:09 42° S 23:08:53 68° ESE 23:14:10 10° NNE
H-2A R/B 3.4 23:07:17 10° NE 23:10:42 23° E 23:10:59 23° E
Cosmos 1703 2.9 23:12:38 72° SSW 23:12:58 85° W 23:16:40 10° N
Cosmos 2333 Rocket 4.5 23:12:13 10° WNW 23:14:25 12° W 23:16:36 10° WSW
Cosmos 1300 Rocket 4.3 23:12:39 10° NNW 23:16:44 42° W 23:17:47 35° SW
Cosmos 2181 Rocket 4.0 23:18:07 10° N 23:24:18 71° E 23:26:52 37° SSE
COSMOS 2455 3.1 23:21:34 20° SW 23:25:46 67° NW 23:31:48 10° NNE
SL-16 R/B 3.6 23:20:45 10° N 23:25:51 32° NE 23:30:12 13° ESE
Cosmos 1825 2.9 23:26:52 35° E 23:26:52 35° E 23:29:47 10° NNE
NOSS 3-2 (A) 4.4 23:27:46 23° ESE 23:28:11 23° ESE 23:32:38 10° ENE
Spot 4 4.2 23:26:57 42° SSW 23:28:13 54° W 23:32:57 10° NNW
BREEZE-M DEB (TANK) 3.1 23:29:09 50° W 23:29:48 74° NNW 23:34:52 10° ENE
Cosmos 2151 Rocket 3.7 23:25:43 10° N 23:30:06 66° E 23:31:01 51° SE
Cosmos 2237 Rocket 2.1 23:26:20 10° NNW 23:32:01 82° WSW 23:34:01 42° SSE
Cosmos 2074 Rocket 4.3 23:30:40 34° SSE 23:33:03 53° E 23:39:05 10° NNE
USA 281 3.9 23:30:32 29° SSW 23:33:07 40° WSW 23:39:17 10° NW
H-2A R/B 3.4 23:34:22 34° WSW 23:35:07 36° W 23:39:04 10° NNW
Cosmos 2098 Rocket 4.0 23:29:04 10° N 23:35:42 78° W 23:38:17 38° S
Cosmos 1674 Rocket 3.6 23:35:17 54° SE 23:36:00 64° E 23:40:18 10° NNE
Cosmos 1378 Rocket 3.5 23:35:17 58° SSE 23:36:04 78° E 23:40:27 10° NNE
ALOS 2 2.8 23:35:18 50° SSW 23:36:07 60° W 23:40:28 10° NNW
Okean 2 Rocket 3.2 23:31:55 10° N 23:36:23 70° E 23:37:23 51° SE
Cosmos 2227 Rocket 2.4 23:35:09 42° SSE 23:36:47 57° ESE 23:42:21 10° NNE
Cosmos 1025 Rocket 4.3 23:37:38 27° ESE 23:38:20 28° E 23:42:02 10° NNE
Cosmos 304 Rocket 4.2 23:38:28 32° SW 23:40:24 55° WNW 23:45:05 10° NNE
NOSS 0 Rocket 4.5 23:37:21 10° NW 23:43:13 44° WSW 23:45:11 34° SSW
Cosmos 783 Rocket 4.5 23:39:05 10° NNW 23:44:23 78° WSW 23:45:58 46° S
Meteor 1-24 Rocket 4.0 23:42:32 33° SW 23:45:04 62° WNW 23:50:39 10° N
Cosmos 1980 3.8 23:39:49 10° NNW 23:45:24 61° WSW 23:47:07 42° S
SL-4 R/B 2.1 23:43:19 10° WNW 23:47:04 56° SW 23:47:04 56° SW
Cosmos 332 Rocket 3.7 23:48:04 51° S 23:49:19 81° ESE 23:54:13 10° NNE
Cosmos 1354 Rocket 4.1 23:49:34 37° SW 23:51:38 72° WNW 23:56:58 10° NNE
Aureole 1 Rocket 4.1 23:55:32 26° E 23:55:35 26° E 23:59:09 10° NE
